General Aviation Weather

Text Reports

Enter one or more of the following location identifiers separated by a space:

Zip Code, Four-Character ICAO or Three-Character IATA airport codes.

METAR - Aviation Routine Weather Report
KMNZ - Hamilton, Texas
Updated at 9:15 PM GMT on November 25, 2014 (3:15 PM CST):
METAR KMNZ 252115Z AUTO 28014G18KT 10SM SCT085 17/M04 A3021 RMK AO2 T01691041
TAF - Terminal Area Forecast
KMNZ - Hamilton, Texas
Updated at 9:15 PM GMT on November 25, 2014 (3:15 PM CST):
No TAF is currently available for this location.
Decoded:
No decoded TAF is available.
PIREP - Pilot Weather Report
KMNZ - Hamilton, Texas
Updated at 9:15 PM GMT on November 25, 2014 (3:15 PM CST):
No PIREP is currently available for this location.
AIRMET - Airmens Meteorological Information
KMNZ - Hamilton, Texas
Updated at 9:15 PM GMT on November 25, 2014 (3:15 PM CST):
No AIRMET is currently available for this location.
SIGMET - Significant Meteorological Information
KMNZ - Hamilton, Texas
Updated at 9:15 PM GMT on November 25, 2014 (3:15 PM CST):
No SIGMET is currently available for this location.
NOTAM - Notice to Airmen
KMNZ - Hamilton, Texas
Updated at 9:15 PM GMT on November 25, 2014 (3:15 PM CST):
No NOTAM is currently available for this location.
Forecast Area
KMNZ - Hamilton, Texas
Updated at 9:15 PM GMT on November 25, 2014 (3:15 PM CST):
No NOTAM is currently available for this location.
Aviation Weather Maps